[[{"header":{"parameterUnit":"m.s-1","parameterCategory":1,"la1":30.2992,"la2":30.254,"lo1":-89.0895,"lo2":-89.0443,"dy":0.0025,"dx":0.0025,"nx":19,"ny":19,"refTime":"2026-05-05T03:00:00:Z","depth":0,"parameterNumber":2,"parameterNumberName":"U-component_of_WINDS"},"data":[0,0,0,-2.504,-2.504,-2.5033,-2.5032,-2.5032,-2.5032,0,0,0,0,0,0,0,0,0,0,0,-2.5048,-2.5048,-2.504,-2.504,-2.5033,-2.5032,-2.5032,-2.5032,0,0,0,0,0,0,0,0,0,0,0,-2.5048,-2.5048,-2.5048,-2.504,-2.5033,-2.5032,-2.5032,-2.5034,0,0,0,0,0,0,0,0,0,0,-2.504,-2.5052,-2.5048,-2.5048,-2.504,-2.5033,-2.5032,-2.5034,-2.5034,-2.5039,0,-2.5045,0,-2.5039,-2.5033,-2.5033,0,0,0,-2.5036,-2.5053,-2.5046,-2.5048,-2.504,-2.5033,-2.5035,-2.5034,-2.5034,-2.5039,-2.5045,-2.5045,-2.5039,-2.5033,-2.5033,-2.5075,-2.5075,0,0,-2.5036,-2.5049,-2.5046,-2.5046,-2.5048,-2.5035,-2.5035,-2.5034,-2.5041,-2.5045,-2.5045,-2.5039,-2.5033,-2.5033,-2.5075,-2.5075,0,0,0,-2.504,-2.505,-2.5043,-2.5046,-2.5044,-2.5035,-2.5034,-2.5041,-2.5038,-2.5044,-2.5039,-2.5033,-2.5033,-2.5074,-2.5075,-2.5105,0,0,0,-2.504,-2.5052,-2.5043,-2.5051,-2.5044,-2.5043,-2.5042,-2.5038,-2.5037,-2.5039,-2.5033,-2.5033,-2.5074,-2.5074,-2.5103,-2.5117,0,0,0,-2.5046,-2.5053,-2.5053,-2.5052,-2.5049,-2.5042,-2.5039,-2.5037,-2.5034,-2.5033,-2.5033,-2.5073,-2.5074,-2.5102,-2.5114,-2.513,0,0,0,-2.5056,-2.5081,-2.5054,-2.508,-2.5049,-2.5062,-2.5038,-2.5047,-2.505,-2.5033,-2.5074,-2.5075,-2.5101,-2.5112,-2.5129,-2.5145,-2.5153,0,0,-2.5094,-2.5086,-2.51,-2.5076,-2.5096,-2.5062,-2.5087,-2.5077,-2.5066,-2.5073,-2.5073,-2.5104,-2.5114,-2.513,-2.52,-2.5207,0,0,0,-2.5116,-2.5126,-2.5129,-2.5132,-2.5126,-2.5121,-2.5106,-2.5103,-2.5108,-2.5072,-2.5115,-2.512,-2.5129,-2.5136,-2.5142,-2.5148,-2.5079,-2.5079,-2.5079,-2.5187,-2.5171,-2.5193,-2.5176,-2.518,-2.5165,-2.5166,-2.5159,-2.5142,-2.5153,-2.5153,-2.5198,-2.5207,-2.5211,-2.5218,-2.5163,-2.5163,-2.5163,-2.5163,-2.524,-2.525,-2.5228,-2.5241,-2.5224,-2.5235,-2.5222,-2.521,-2.5217,-2.5196,-2.5203,-2.5178,-2.5219,-2.5224,-2.5165,-2.5165,-2.5164,-2.5164,-2.5164,-2.5282,-2.5284,-2.528,-2.5283,-2.5288,-2.5271,-2.5279,-2.5264,-2.525,-2.5257,-2.5256,-2.5255,-2.5251,-2.5258,-2.5258,-2.5258,-2.5259,-2.5259,-2.5259,-2.5327,-2.5321,-2.533,-2.5326,-2.5326,-2.5324,-2.5311,-2.531,-2.5306,-2.5294,-2.5294,-2.5276,-2.5227,-2.5213,-2.5261,-2.5261,-2.526,-2.526,-2.526,-2.5382,-2.5367,-2.538,-2.538,-2.5375,-2.5379,-2.5361,-2.5362,-2.536,-2.5364,-2.5345,-2.5312,-2.5302,-2.5297,-2.5286,-2.5349,-2.5349,-2.5349,-2.5349,-2.5416,-2.541,-2.542,-2.5421,-2.5421,-2.5406,-2.5421,-2.5411,-2.5399,-2.5396,-2.5386,-2.5371,-2.5367,-2.5359,-2.5353,-2.5342,-2.5418,-2.5418,-2.5418,-2.5448,-2.5442,-2.5457,-2.5445,-2.544,-2.5435,-2.5449,-2.5451,-2.5434,-2.5421,-2.5394,-2.5391,-2.5366,-2.5359,-2.5343,-2.5334,-2.5313,0,0]},{"header":{"parameterUnit":"m.s-1","parameterCategory":1,"la1":30.2992,"la2":30.254,"lo1":-89.0895,"lo2":-89.0443,"dy":0.0025,"dx":0.0025,"nx":19,"ny":19,"refTime":"2026-05-05T03:00:00:Z","depth":0,"parameterNumber":3,"parameterNumberName":"V-component_of_WINDS"},"data":[0,0,0,6.1081,6.1081,6.1072,6.1072,6.1073,6.1073,0,0,0,0,0,0,0,0,0,0,0,6.1093,6.1093,6.1081,6.1081,6.1072,6.1072,6.1073,6.1073,0,0,0,0,0,0,0,0,0,0,0,6.1092,6.1093,6.1093,6.1081,6.1072,6.1072,6.1073,6.1075,0,0,0,0,0,0,0,0,0,0,6.1081,6.11,6.1093,6.1093,6.1081,6.1073,6.1072,6.1074,6.1075,6.1083,0,6.1094,0,6.1084,6.1074,6.1074,0,0,0,6.1073,6.1101,6.1091,6.1093,6.1081,6.1073,6.1074,6.1074,6.1074,6.1083,6.1094,6.1093,6.1084,6.1074,6.1074,6.1156,6.1157,0,0,6.1074,6.1095,6.1091,6.1091,6.1096,6.1075,6.1074,6.1074,6.1086,6.1094,6.1093,6.1084,6.1074,6.1074,6.1155,6.1156,0,0,0,6.1081,6.1095,6.1085,6.1092,6.109,6.1074,6.1074,6.1086,6.1082,6.1093,6.1084,6.1074,6.1075,6.1154,6.1155,6.1216,0,0,0,6.108,6.1099,6.1086,6.1098,6.109,6.1088,6.1086,6.1082,6.1081,6.1084,6.1074,6.1075,6.1153,6.1155,6.1212,6.124,0,0,0,6.109,6.11,6.1103,6.11,6.1097,6.1088,6.1083,6.1081,6.1076,6.1074,6.1075,6.1153,6.1155,6.1209,6.1235,6.1271,0,0,0,6.1105,6.1151,6.1104,6.1152,6.1098,6.1126,6.1082,6.1101,6.1107,6.1074,6.1153,6.1155,6.1208,6.1232,6.1268,6.1307,6.1324,0,0,6.1175,6.1161,6.1188,6.1145,6.1189,6.1126,6.1177,6.1159,6.1137,6.115,6.1152,6.1214,6.1235,6.1271,6.1414,6.1428,0,0,0,6.1217,6.1238,6.1244,6.1254,6.1245,6.1241,6.1214,6.1209,6.122,6.1149,6.1235,6.1246,6.1267,6.1284,6.1296,6.1313,6.1164,6.1164,6.1163,6.1345,6.132,6.1365,6.1341,6.135,6.1326,6.1331,6.132,6.1286,6.1308,6.1311,6.1402,6.1423,6.1432,6.145,6.1328,6.1328,6.1329,6.1329,6.1447,6.1474,6.1436,6.1466,6.144,6.1463,6.1444,6.1421,6.1439,6.1395,6.1411,6.1367,6.1449,6.1463,6.1333,6.1332,6.1332,6.1331,6.1331,6.153,6.1538,6.1535,6.155,6.1563,6.1536,6.1558,6.1531,6.1505,6.1521,6.1525,6.1524,6.1521,6.1525,6.1525,6.1526,6.1526,6.1526,6.1526,6.1617,6.1611,6.1635,6.1635,6.164,6.1644,6.1624,6.1628,6.1625,6.1603,6.1603,6.1571,6.1461,6.1436,6.1531,6.153,6.153,6.1529,6.1529,6.1732,6.1704,6.174,6.1747,6.1747,6.1765,6.1732,6.1744,6.1743,6.1756,6.1721,6.1644,6.1625,6.1615,6.1594,6.1725,6.1725,6.1725,6.1725,6.1803,6.1793,6.1828,6.184,6.1849,6.1826,6.1869,6.1856,6.1836,6.1835,6.1812,6.1781,6.1772,6.1759,6.1746,6.1726,6.1887,6.1887,6.1887,6.1874,6.1865,6.1907,6.1893,6.1893,6.1893,6.1935,6.195,6.1921,6.1893,6.1834,6.1827,6.1777,6.1761,6.1731,6.1711,6.1673,0,0]}]]